• Processing (Info)

  • MPEC 2004-X66 : 2004 XM35

    The following Minor Planet Electronic Circular may be linked-to from your own Web pages, but must not otherwise be redistributed electronically.

    A form allowing access to any MPEC is at the bottom of this page.


    Read MPEC 2004-X65 Read MPEC 2004-X67


    M.P.E.C. 2004-X66                                Issued 2004 Dec. 13, 12:53 UT
    
         The Minor Planet Electronic Circulars contain information on unusual
             minor planets and routine data on comets.  They are published
       on behalf of Commission 20 of the International Astronomical Union by the
              Minor Planet Center, Smithsonian Astrophysical Observatory,
                              Cambridge, MA 02138, U.S.A.
    
                      Supported in part by the Brinson Foundation
                 Prepared using the Tamkin Foundation Computer Network
    
                                  MPC@CFA.HARVARD.EDU
              URL http://cfa-www.harvard.edu/iau/mpc.html  ISSN 1523-6714
    
                                       2004 XM35
    
    Observations:
         K04X35M  C2004 11 12.25018 02 44 11.68 -03 45 31.4          19.0   EX066704
         K04X35M  C2004 11 12.26211 02 44 11.18 -03 45 31.4          19.5   EX066704
         K04X35M  C2004 11 12.28597 02 44 10.08 -03 45 29.7          19.8   EX066704
         K04X35M  C2004 12 07.18963 02 37 43.27 -00 19 25.0          19.1   EX066704
         K04X35M  C2004 12 07.20330 02 37 43.34 -00 19 13.0          19.5   EX066704
         K04X35M  C2004 12 07.22852 02 37 43.57 -00 18 49.7          20.0   EX066704
         K04X35M* C2004 12 12.17506 02 39 42.03 +01 03 03.6          19.1   EX066644
         K04X35M  C2004 12 12.19538 02 39 42.51 +01 03 25.0          19.0   EX066644
         K04X35M  C2004 12 12.21017 02 39 42.73 +01 03 41.0          19.1   EX066704
         K04X35M  C2004 12 12.21904 02 39 43.10 +01 03 50.0          19.0   EX066644
         K04X35M  C2004 12 12.22512 02 39 43.07 +01 03 58.5          19.5   EX066704
         K04X35M  C2004 12 12.23957 02 39 43.37 +01 04 11.4          19.2   EX066704
         K04X35M  C2004 12 12.25410 02 39 43.75 +01 04 27.9          19.2   EX066704
         K04X35M  C2004 12 12.26865 02 39 44.13 +01 04 42.8          19.2   EX066704
         K04X35M  C2004 12 12.97462 02 40 07.43 +01 17 10.3                 EX066246
         K04X35M  C2004 12 12.97611 02 40 07.49 +01 17 12.5                 EX066246
         K04X35M  C2004 12 12.97703 02 40 07.49 +01 17 13.0                 EX066246
         K04X35M  C2004 12 12.97769 02 40 07.51 +01 17 13.8                 EX066246
         K04X35M  C2004 12 12.97840 02 40 07.56 +01 17 14.8                 EX066246
         K04X35M  C2004 12 12.97909 02 40 07.58 +01 17 15.4                 EX066246
         K04X35M 5C2004 12 13.08483 02 40 12.86 +01 19 13.9          19.0 R EX066673
         K04X35M 5C2004 12 13.08773 02 40 12.94 +01 19 16.7                 EX066673
         K04X35M 5C2004 12 13.09225 02 40 13.10 +01 19 21.4                 EX066673
         K04X35M 5C2004 12 13.11146 02 40 13.62 +01 19 42.7                 EX066673
         K04X35M  C2004 12 13.15967 02 40 14.80 +01 20 34.9          20.0 R EX066448
         K04X35M  C2004 12 13.16692 02 40 15.02 +01 20 42.7          19.7 R EX066448
         K04X35M  C2004 12 13.17489 02 40 15.21 +01 20 51.2          19.6 R EX066448
         K04X35M  C2004 12 13.26493 02 40 17.68 +01 22 29.2          19.3 R EX066651
         K04X35M  C2004 12 13.26675 02 40 17.75 +01 22 31.0          19.3 R EX066651
    
    Observer details:
    246 Klet Observatory-KLENOT.  Observers J. Ticha, M. Tichy, M. Kocer.
        Measurer M. Tichy.  1.06-m KLENOT Telescope + CCD.
    448 Desert Moon Observatory.  Observer B. L. Stevens.  0.3-m
        Schmidt-Cassegrain + CCD.
    644 Palomar Mountain/NEAT.  Observers R. Bambery, M. Hicks, K. Lawrence,
        E. Helin, R. Thicksten.  1.2-m Schmidt + CCD.
    651 Grasslands Observatory, Tucson.  Observer J. E. McGaha.  0.62-m f/5.1
        Newtonian reflector + CCD.
    673 Table Mountain Observatory, Wrightwood.  Observer J. Young.  0.6-m
        reflector + CCD.
    704 Lincoln Laboratory ETS, New Mexico.  Observers M. Blythe, F. Shelly,
        M. Bezpalko, R. Huber, L. Manguso, D. Torres, R. Kracke, M. McCleary,
        H. Stange, A. Milner.  Measurers J. Stuart, R. Sayer, J. Evans, J. Kommers.
        1.0-m f/2.15 reflector + CCD.
    
    Orbital elements:
    2004 XM35
    Epoch 2004 Nov. 11.0 TT = JDT 2453320.5                 MPC
    M 340.95627              (2000.0)            P               Q
    n   0.39591636     Peri.  322.65609     +0.13924683     -0.98690217
    a   1.8368220      Node   119.20595     +0.92957420     +0.10191954
    e   0.3006784      Incl.    5.35434     +0.34132408     +0.12504603
    P   2.49           H   19.6           G   0.15
    From 28 observations 2004 Nov. 12-Dec. 13.
    
    Ephemeris:
    2004 XM35                a,e,i = 1.84, 0.30, 5                   q = 1.2845
    Date    TT    R. A. (2000) Decl.     Delta      r     Elong.  Phase     V
    2004 12 11    02 39.11   +00 42.8    0.387    1.293   136.5    31.6    19.4
    2004 12 21    02 46.48   +03 51.9    0.410    1.286   130.0    35.9    19.7
    2004 12 31    02 59.03   +07 24.4    0.440    1.285   124.4    39.2    19.9
    2005 01 10    03 16.20   +11 03.8    0.478    1.288   119.6    41.6    20.2
    2005 01 20    03 37.41   +14 36.6    0.522    1.297   115.5    43.2    20.4
    2005 01 30    04 01.91   +17 51.2    0.574    1.311   111.8    44.2    20.7
    2005 02 09    04 28.98   +20 39.1    0.632    1.330   108.5    44.7    20.9
    2005 02 19    04 58.00   +22 55.1    0.698    1.353   105.4    44.8    21.2
    2005 03 01    05 28.25   +24 35.9    0.772    1.380   102.3    44.5    21.4
    2005 03 11    05 59.09   +25 41.1    0.852    1.410    99.3    44.0    21.7
    2005 03 21    06 30.01   +26 12.2    0.940    1.443    96.3    43.3    21.9
    
    Timothy B. Spahr             (C) Copyright 2004 MPC           M.P.E.C. 2004-X66
    

    Read MPEC 2004-X65 Read MPEC 2004-X67


    MPEC number:

    Enter an MPEC number in one of the following forms:

    • 1997-B01 (the full form)
    • J97B01 (the packed version of the full form)
    • B01 (the abbreviated form)